When you browse on this site, cookies collect data to enhance your experience and personalize the content and advertising you see.
Visit our Privacy Policy to learn more. By continuing to use the site, you agree to this use of cookies and data.
  • En España
  • Lista de países
  • Para 7 días
  • Temperatura del agua
  • Mapa Satelital
  • El tiempo en el mapa
  • Informadores
  • user-avatar
    Iniciar sesión

    Tiempo cada hora Kadako

    Hoy, 19 Febrero, Martes

    Tiempo Temperatura Precipitaciones Viento Presión Humedad
    00:00 +20°C° 0 mm 1 mps 735 mmHg 95%
    01:00 +20°C° 0 mm 1 mps 735 mmHg 96%
    02:00 +19°C° 0 mm 1 mps 735 mmHg 97%
    03:00 +19°C° 0 mm 1 mps 735 mmHg 97%
    04:00 +19°C° 0 mm 1 mps 735 mmHg 97%
    05:00 +18°C° 0 mm 1 mps 735 mmHg 97%
    06:00 +20°C° 0 mm 1 mps 735 mmHg 88%
    07:00 +22°C° 0 mm 1 mps 735 mmHg 80%
    08:00 +24°C° 0 mm 2 mps 736 mmHg 72%
    09:00 +25°C° 0 mm 2 mps 736 mmHg 63%
    10:00 +27°C° 0 mm 2 mps 736 mmHg 54%
    11:00 +29°C° 0 mm 2 mps 735 mmHg 46%
    12:00 +30°C° 0 mm 2 mps 735 mmHg 45%
    13:00 +30°C° 0 mm 2 mps 735 mmHg 44%
    14:00 +31°C° 0 mm 2 mps 734 mmHg 43%
    15:00 +30°C° 0 mm 2 mps 734 mmHg 48%
    16:00 +30°C° 0 mm 2 mps 734 mmHg 52%
    17:00 +29°C° 0 mm 2 mps 733 mmHg 57%
    18:00 +27°C° 0 mm 2 mps 734 mmHg 67%
    19:00 +25°C° 0 mm 2 mps 734 mmHg 76%
    20:00 +22°C° 0 mm 1 mps 734 mmHg 86%
    21:00 +22°C° 0 mm 1 mps 734 mmHg 87%
    22:00 +20°C° 0 mm 0 mps 735 mmHg 88%
    23:00 +20°C° 0 mm 0 mps 735 mmHg 90%

    Mañana, 20 Febrero, Miércoles

    Tiempo Temperatura Precipitaciones Viento Presión Humedad
    00:00 +20°C° 0.1 mm 0 mps 735 mmHg 90%
    01:00 +20°C° 0.1 mm 0 mps 735 mmHg 91%
    02:00 +20°C° 0.1 mm 0 mps 734 mmHg 91%
    03:00 +20°C° 0 mm 0 mps 734 mmHg 92%
    04:00 +19°C° 0 mm 0 mps 734 mmHg 93%
    05:00 +19°C° 0 mm 0 mps 734 mmHg 94%
    06:00 +22°C° 0 mm 1 mps 734 mmHg 89%
    07:00 +23°C° 0 mm 1 mps 734 mmHg 84%
    08:00 +25°C° 0 mm 1 mps 734 mmHg 79%
    09:00 +27°C° 0 mm 1 mps 734 mmHg 70%
    10:00 +29°C° 0 mm 2 mps 734 mmHg 61%
    11:00 +31°C° 0 mm 2 mps 733 mmHg 52%
    12:00 +32°C° 0 mm 2 mps 733 mmHg 50%
    13:00 +35°C° 0 mm 2 mps 732 mmHg 47%
    14:00 +36°C° 0 mm 3 mps 731 mmHg 44%
    15:00 +35°C° 0 mm 3 mps 731 mmHg 47%
    16:00 +35°C° 0 mm 2 mps 731 mmHg 50%
    17:00 +34°C° 0 mm 2 mps 731 mmHg 53%
    18:00 +31°C° 0 mm 2 mps 731 mmHg 61%
    19:00 +28°C° 0 mm 2 mps 731 mmHg 70%
    20:00 +25°C° 0 mm 2 mps 732 mmHg 78%
    21:00 +24°C° 0 mm 1 mps 732 mmHg 83%
    22:00 +23°C° 0 mm 1 mps 733 mmHg 88%
    23:00 +23°C° 0 mm 1 mps 733 mmHg 92%

    Pasado mañana, 21 Febrero, Jueves

    Tiempo Temperatura Precipitaciones Viento Presión Humedad
    00:00 +22°C° 0 mm 1 mps 733 mmHg 93%
    01:00 +22°C° 0 mm 1 mps 733 mmHg 94%
    02:00 +22°C° 0 mm 1 mps 733 mmHg 95%
    03:00 +22°C° 0 mm 1 mps 734 mmHg 96%
    04:00 +22°C° 0 mm 1 mps 734 mmHg 97%
    05:00 +21°C° 0 mm 1 mps 735 mmHg 98%
    06:00 +23°C° 0 mm 1 mps 735 mmHg 93%
    07:00 +24°C° 0 mm 1 mps 736 mmHg 87%
    08:00 +26°C° 0 mm 1 mps 737 mmHg 82%
    09:00 +27°C° 0 mm 2 mps 737 mmHg 77%
    10:00 +28°C° 0 mm 3 mps 737 mmHg 72%
    11:00 +29°C° 0 mm 3 mps 737 mmHg 68%
    12:00 +30°C° 0 mm 3 mps 737 mmHg 66%
    13:00 +30°C° 0 mm 3 mps 736 mmHg 64%
    14:00 +30°C° 0 mm 2 mps 736 mmHg 62%
    15:00 +30°C° 0 mm 2 mps 736 mmHg 65%
    16:00 +29°C° 0 mm 2 mps 736 mmHg 68%
    17:00 +29°C° 0 mm 2 mps 735 mmHg 71%
    18:00 +28°C° 0.3 mm 2 mps 736 mmHg 79%
    19:00 +26°C° 0.3 mm 2 mps 737 mmHg 87%
    20:00 +25°C° 0.3 mm 2 mps 738 mmHg 94%
    21:00 +25°C° 0.4 mm 1 mps 738 mmHg 95%
    22:00 +24°C° 0.4 mm 1 mps 738 mmHg 96%
    23:00 +24°C° 0.4 mm 1 mps 738 mmHg 97%

    22 Febrero, Viernes

    Tiempo Temperatura Precipitaciones Viento Presión Humedad
    00:00 +24°C° 0.5 mm 1 mps 738 mmHg 97%
    01:00 +24°C° 0.5 mm 1 mps 737 mmHg 97%
    02:00 +24°C° 0.5 mm 1 mps 737 mmHg 97%
    03:00 +22°C° 0.3 mm 0 mps 737 mmHg 97%
    04:00 +22°C° 0.3 mm 0 mps 737 mmHg 96%
    05:00 +22°C° 0.3 mm 0 mps 737 mmHg 96%
    06:00 +22°C° 0.2 mm 0 mps 737 mmHg 95%
    07:00 +22°C° 0.2 mm 0 mps 737 mmHg 94%
    08:00 +23°C° 0.2 mm 0 mps 737 mmHg 92%
    09:00 +25°C° 0.1 mm 0 mps 737 mmHg 85%
    10:00 +27°C° 0.1 mm 0 mps 737 mmHg 77%
    11:00 +31°C° 0.1 mm 1 mps 737 mmHg 69%
    12:00 +31°C° 0 mm 1 mps 736 mmHg 64%
    13:00 +32°C° 0 mm 1 mps 735 mmHg 59%
    14:00 +33°C° 0 mm 1 mps 734 mmHg 54%
    15:00 +32°C° 0 mm 2 mps 734 mmHg 58%
    16:00 +31°C° 0 mm 2 mps 733 mmHg 62%
    17:00 +31°C° 0 mm 3 mps 733 mmHg 66%
    18:00 +29°C° 0 mm 3 mps 733 mmHg 70%
    19:00 +27°C° 0 mm 3 mps 733 mmHg 74%
    20:00 +26°C° 0 mm 3 mps 733 mmHg 79%
    21:00 +25°C° 2.4 mm 2 mps 733 mmHg 84%
    22:00 +24°C° 2.4 mm 2 mps 733 mmHg 90%
    23:00 +23°C° 2.4 mm 2 mps 733 mmHg 96%

    23 Febrero, Sábado

    Tiempo Temperatura Precipitaciones Viento Presión Humedad
    00:00 +23°C° 7.9 mm 2 mps 733 mmHg 96%
    01:00 +23°C° 7.9 mm 2 mps 733 mmHg 97%
    02:00 +22°C° 7.9 mm 3 mps 732 mmHg 97%
    03:00 +23°C° 1 mm 2 mps 732 mmHg 97%
    04:00 +23°C° 1 mm 1 mps 732 mmHg 98%
    05:00 +20°C° 1 mm 0 mps 732 mmHg 98%
    06:00 +23°C° 0.1 mm 1 mps 732 mmHg 96%
    07:00 +24°C° 0.1 mm 1 mps 732 mmHg 94%
    08:00 +25°C° 0.1 mm 1 mps 732 mmHg 92%
    09:00 +26°C° 0 mm 1 mps 731 mmHg 85%
    10:00 +28°C° 0 mm 2 mps 731 mmHg 77%
    11:00 +30°C° 0 mm 2 mps 730 mmHg 70%
    12:00 +31°C° 0 mm 2 mps 730 mmHg 67%
    13:00 +33°C° 0 mm 3 mps 729 mmHg 64%
    14:00 +34°C° 0 mm 3 mps 729 mmHg 61%
    15:00 +34°C° 0 mm 3 mps 729 mmHg 63%
    16:00 +34°C° 0 mm 3 mps 729 mmHg 65%
    17:00 +32°C° 0 mm 2 mps 728 mmHg 67%
    18:00 +30°C° 2.4 mm 2 mps 729 mmHg 76%
    19:00 +27°C° 2.4 mm 2 mps 729 mmHg 85%
    20:00 +25°C° 2.4 mm 2 mps 730 mmHg 94%
    21:00 +24°C° 2 mm 2 mps 730 mmHg 95%
    22:00 +24°C° 2 mm 1 mps 731 mmHg 97%
    23:00 +22°C° 2 mm 0 mps 731 mmHg 98%

    24 Febrero, Domingo

    Tiempo Temperatura Precipitaciones Viento Presión Humedad
    00:00 +22°C° 0.1 mm 0 mps 731 mmHg 98%
    01:00 +22°C° 0.1 mm 0 mps 731 mmHg 98%
    02:00 +22°C° 0.1 mm 0 mps 731 mmHg 98%
    03:00 +22°C° 0.1 mm 0 mps 731 mmHg 98%
    04:00 +22°C° 0.1 mm 0 mps 731 mmHg 98%
    05:00 +24°C° 0.1 mm 1 mps 731 mmHg 98%
    06:00 +24°C° 0.1 mm 1 mps 732 mmHg 97%
    07:00 +25°C° 0.1 mm 1 mps 732 mmHg 96%
    08:00 +25°C° 0.1 mm 1 mps 732 mmHg 96%
    09:00 +24°C° 0.1 mm 0 mps 732 mmHg 90%
    10:00 +26°C° 0.1 mm 0 mps 732 mmHg 84%
    11:00 +27°C° 0.1 mm 0 mps 732 mmHg 79%
    12:00 +28°C° 0.5 mm 0 mps 731 mmHg 73%
    13:00 +32°C° 0.5 mm 1 mps 731 mmHg 68%
    14:00 +33°C° 0.5 mm 1 mps 731 mmHg 62%
    15:00 +32°C° 0.8 mm 1 mps 730 mmHg 68%
    16:00 +31°C° 0.8 mm 1 mps 730 mmHg 74%
    17:00 +29°C° 0.8 mm 2 mps 730 mmHg 79%
    18:00 +28°C° 1.1 mm 2 mps 731 mmHg 84%
    19:00 +27°C° 1.1 mm 2 mps 731 mmHg 89%
    20:00 +25°C° 1.1 mm 2 mps 732 mmHg 93%
    21:00 +25°C° 2.6 mm 2 mps 732 mmHg 94%
    22:00 +24°C° 2.6 mm 1 mps 732 mmHg 96%
    23:00 +24°C° 2.6 mm 1 mps 733 mmHg 97%
    Mostrar más